Regional Weather Roundup
Issued by NWS

Home | Current Version | Previous Version | Graphics & Text | Print | Product List | Glossary On
Versions: 1 2 3 4 5 6 7 8 9 10 11 12 13 14 15 16 17 18 19 20 21 22 23 24 25 26 27
000
ASUS45 KPSR 271310
RWRAZ

ARIZONA HOURLY REGIONAL WEATHER ROUNDUP
NATIONAL WEATHER SERVICE PHOENIX AZ
600 AM MST TUE SEP 27 2016

NOTE: FAIR INDICATES FEW OR NO CLOUDS BELOW 12,000 FEET WITH NO
SIGNIFICANT WEATHER AND/OR OBSTRUCTIONS TO VISIBILITY.

AZZ001>003-036-271400-
NORTHWEST ARIZONA

CITY           SKY/WX    TMP DP  RH WIND       PRES   REMARKS
BULLHEAD CITY  PTCLDY    75  46  35 CALM      29.95R
KINGMAN        PTCLDY    59  32  36 E12       30.10R
$$

AZZ004>008-015-016-018-271400-
NORTH CENTRAL ARIZONA

CITY           SKY/WX    TMP DP  RH WIND       PRES   REMARKS
GRAND CANYON   CLEAR     41  34  76 NE5       30.31R
PRESCOTT       LGT RAIN  59  49  69 CALM      30.20R
FLAGSTAFF      CLOUDY    48  38  68 CALM      30.30S
PAYSON         CLOUDY    57  48  72 E6        30.24R
PAGE           CLEAR     56  36  47 SW5       30.20S
$$

AZZ009>014-017-271400-
NORTHEAST ARIZONA

CITY           SKY/WX    TMP DP  RH WIND       PRES   REMARKS
WINSLOW        CLOUDY    54  31  41 CALM      30.23R
SAINT JOHNS    PTCLDY    55  41  59 SE6       30.25R
WINDOW ROCK    MOCLDY    42  29  59 S5        30.35R
SHOW LOW       CLOUDY    50  46  87 S5        30.28S
$$

AZZ023-271400-
GREATER PHOENIX AREA

CITY           SKY/WX    TMP DP  RH WIND       PRES   REMARKS
PHOENIX        MOCLDY    73  49  42 SE8       29.98S
BUCKEYE        CLOUDY    73  46  38 E14       29.99R
GLENDALE       MOCLDY    72  52  49 CALM      30.00
LUKE AFB       MOCLDY    70  50  49 CALM      29.98R
DEER VALLEY    PTCLDY    74  47  38 E10       29.99S
SCOTTSDALE     PTCLDY    75  48  38 E9G17     30.01R
MESA-FALCON    PTCLDY   N/A N/A N/A N5        29.98
MESA-GATEWAY   MOCLDY    66  48  52 SE7       30.02R
CHANDLER       CLEAR     70  48  46 E10       30.01
$$

AZZ027-028-271400-
SOUTHWEST MARICOPA COUNTY AND PINAL COUNTY

CITY           SKY/WX    TMP DP  RH WIND       PRES   REMARKS
CASA GRANDE    PTCLDY    70  45  40 E15       30.03R
GILA BEND      FAIR      74  47  37 E13       29.94R
$$

AZZ503-504-507>509-271400-
SOUTHEAST ARIZONA

CITY           SKY/WX    TMP DP  RH WIND       PRES   REMARKS
TUCSON         LGT RAIN  63  55  75 E7        30.08F
DAVIS-MONTHAN  TSTM      59  55  88 SE17      30.10S
NOGALES        CLOUDY    55  52  89 E10       30.12R
SIERRA VISTA   MOCLDY    52  52 100 E8        30.19R THUNDER
DOUGLAS        MOCLDY    56  48  74 E7        30.16R
SAFFORD        CLOUDY    59  47  64 S7        30.18R
$$

AZZ020-021-025-026-031-271400-
SOUTHWEST ARIZONA

CITY           SKY/WX    TMP DP  RH WIND       PRES   REMARKS
YUMA           MOCLDY    77  48  35 CALM      29.88R
$$

CAZ031-033-041-043-047-048-061-271400-
SOUTHERN CALIFORNIA

CITY           SKY/WX    TMP DP  RH WIND       PRES   REMARKS
DOWNTOWN L.A.  CLEAR     72  46  39 CALM      29.84S
L.A. AIRPORT   PTCLDY    76  38  25 VRB7      29.84S
SAN DIEGO      MOCLDY    82  49  31 NW3       29.83S
BURBANK        CLEAR     73  33  23 NW7       29.88S
ONTARIO        MOCLDY    73  41  31 N5        29.90S
RIVERSIDE      PTCLDY    69  43  38 CALM      29.89S
PALM SPRINGS   MOCLDY    75  52  44 CALM      29.92R
EL CENTRO NAS  MOCLDY    72  49  44 SW6       29.89S
IMPERIAL       PTCLDY    75  52  44 CALM      29.88R
BLYTHE         PTCLDY    78  50  37 E12       29.92R
NEEDLES        PTCLDY    79  49  34 S5        29.96R
$$

NVZ020-UTZ003-271400-
SOUTHERN NEVADA-UTAH

CITY           SKY/WX    TMP DP  RH WIND       PRES   REMARKS
LAS VEGAS      PTCLDY    70  32  24 SW3       30.02R
SALT LAKE CITY CLEAR     53  45  74 SE8       30.23R
$$

NMZ009-TXZ055-271400-
NEW MEXICO-WEST TEXAS

CITY           SKY/WX    TMP DP  RH WIND       PRES   REMARKS
ALBUQUERQUE    PTCLDY    51  35  54 N13       30.30S
EL PASO        CLOUDY    57  43  59 CALM      30.26R
$$


........................KEY........................
SKY/WX - SKY CONDITION/WEATHER
TMP    - TEMPERATURE IN FAHRENHEIT
DP     - DEW POINT IN FAHRENHEIT
RH     - RELATIVE HUMIDITY IN PERCENT
WIND   - DIRECTION AND SPEED IN MILES PER HOUR (MPH)
VRB    - VARIABLE WIND DIRECTION
PRES   - MEAN SEA LEVEL PRESSURE IN INCHES OF MERCURY
         F - FALLING PRESSURE   R - RISING PRESSURE
         S - STEADY PRESSURE
VSB    - VISIBILITY IN MILES
HX     - HEAT INDEX IN FAHRENHEIT
WCI    - WIND CHILL INDEX IN FAHRENHEIT
TC     - TEMPERATURE IN CELSIUS WHICH IS ALSO KNOWN AS
         TEMPERATURE IN CENTIGRADE
AFB    - AIR FORCE BASE
         LUKE AFB IS LUKE AIR FORCE BASE
         DAVIS-MONTHAN IS DAVIS-MONTHAN AIR FORCE BASE
NAS    - NAVAL AIR STATION
         EL CENTRO NAS IS EL CENTRO NAVAL AIR STATION
N/A    - NOT AVAILABLE





USA.gov is the U.S. government's official web portal to all federal, state and local government web resources and services.